User: anonymous   Login
Location: Gleizolles
(44.4833°N, 6.7667°E)
Time: 07:16:00
(UTC+00:00)
Language:

Oscar 11 - Orbit

View from above orbital plane
View from above orbital plane
View from above satellite
View from above satellite

Ground track
Ground track

The orbit data is extracted from the following two-line orbital elements,

1 14781U 84021B   22339.66938725  .00000982  00000-0  12388-3 0  9995
2 14781  97.6358 319.4979 0009679 114.0046 246.2183 14.84009174 65432
Epoch (UTC): 05 December 2022 16:03:55
Eccentricity: 0.0009679
inclination: 97.6358°
perigee height: 610 km
apogee height: 623 km
right ascension of ascending node: 319.4979°
argument of perigee: 114.0046°
revolutions per day: 14.84009174
mean anomaly at epoch: 246.2183°
orbit number at epoch: 6543

The dashed part of the orbit path shows where the satellite is in the earth's shadow,  

DLR